Home > Weather > Kobe > Past weeks

Flag for Japan Weather for the Past 2 Weeks in Kobe, Japan

Now
39 °F

Passing clouds.


Feels Like: 37 °F
Forecast: 31 / 54 °F
Wind: 3 mph from Northwest

Location: Osaka International Airport

Current Time: Feb 10, 2016 at 10:52:41 PM

Latest Report: Feb 10, 2016 at 8:00 PM


Visibility: N/A

Pressure: 30.36 "Hg

Humidity: 48%

Dew point: 21 °F

Location of KobeLocation

Historic Weather in Kobe — Graph

°F

Kobe Temperature Yesterday

Maximum temperature yesterday: 52 °F (at 2:00 PM)
Minimum temperature yesterday: 39 °F (at 5:00 AM)
Average temperature yesterday: 46 °F

High & Low Weather Summary for the Past Weeks

 TemperatureHumidityPressure
High52 °F (Jan 27, 2:00 PM)100% (Jan 29, 6:00 AM)30.42 "Hg (Jan 29, 6:00 AM)
Low28 °F (Feb 4, 6:00 AM)20% (Feb 8, 2:00 PM)29.89 "Hg (Feb 9, 7:00 AM)
Average44 °F56%30.14 "Hg
* Reported Jan 26 8:00 PM — Feb 10 8:00 PM, Kobe, Weather by CustomWeather, © 2016

Note: Actual official high and low records may vary slightly from our data, if they occured in-between our weather recording intervals... More about our weather records

Advertising

Kobe Weather History for the Previous 24 Hours

 ConditionsComfort  
Time TempWeatherWind HumidityBarometerVisibility
8:00 PM
Wed, Feb 10
39 °FPassing clouds.3 mph48%30.36 "HgN/A
7:00 PM41 °FClear.6 mph42%30.33 "Hg10 mi
6:00 PM43 °FPassing clouds.13 mph36%30.33 "HgN/A
5:00 PM45 °FPassing clouds.16 mph37%30.30 "HgN/A
4:00 PM46 °FPassing clouds.15 mph34%30.27 "HgN/A
3:00 PM48 °FPassing clouds.10 mph37%30.27 "HgN/A
2:00 PM46 °FPartly sunny.13 mph37%30.27 "HgN/A
1:00 PM46 °FPartly sunny.14 mph37%30.27 "HgN/A
12:00 PM48 °FScattered clouds.12 mph37%30.27 "HgN/A
11:00 AM46 °FScattered clouds.12 mph43%30.30 "HgN/A
10:00 AM45 °FPassing clouds.10 mph46%30.30 "HgN/A
9:00 AM41 °FPassing clouds.2 mph57%30.27 "HgN/A
8:00 AM37 °FPassing clouds.6 mph70%30.24 "HgN/A
7:00 AM36 °FBroken clouds.5 mph75%30.24 "HgN/A
6:00 AM36 °FPassing clouds.3 mph75%30.21 "HgN/A
5:00 AM34 °FPassing clouds.6 mph75%30.18 "HgN/A
Weather by CustomWeather, © 2016

See weather overviewHow to use our weather pages